SUOMI NPP

Last updated on Sun Oct 19 2025 00:02:22 GMT+0000 (Coordinated Universal Time)

1 37849U 11061A 25291.29191074 .00000161 00000+0 97229-4 0 9992 2 37849 98.7675 229.1570 0000918 0.7467 359.3711 14.19531282724124
UTC large
Height (km)
Speed (km/s)
/
Latitude / Longitude
Inclination (degrees)
Orbital Period (minutes)
Azimuth
Elevation
Range (km)
Doppler Factor

Next 0 passes for location: London (51.5072 / 0.1276)

Sorry there are no passes over London.